Content
SEND FEEDBACK

Daily
Averages
Monthly
Summary
United States of America

STATEN ISLAND, NEW YORK


Home > North America > United States > New York
Elevation: 152 feet     Latitude: 40 35N     Longitude: 074 09W

WEATHER
 
SELECT A DAY
Number of Records: 189,501;   Date Range: 1/1/95 - 7/20/14
 
SHARE

PRINT THIS DATA

[ ← Previous Day ]
WEATHER ALMANAC - MARCH 26, 2013
[ Next Day → ]
[ °C ]   °F
Weather ElementAverageHighLow
Temperature44.1 °F51.8 °F (3:51 pm)36 °F (3:51 am)
Dewpoint27 °F32 °F (1:51 am)21.2 °F (3:51 pm)
Humidity54.2 %86 % (3:51 am)30 % (3:51 pm)
Barometer29.75 in29.87 in (11:51 pm)29.62 in (1:51 am)
Wind Speed9.2 mph19.6 mph (4:51 pm)
Wind Gust25.3 mph (4:51 pm)
Weather ElementAverage
Visibility10 mi
Wind DirectionWNW (276.3 °)

Weather ElementTotal
Precipitation---
Heating Degree Days21.1 (Base 65)
Averaged from 24 records on March 26, 2013
WEATHER CONDITIONS BREAKOUT
WIND DIRECTION BREAKOUT
WEATHER BY HOUR - MARCH 26, 2013
[ °C ]   °F
Local TimeTemperatureDewpointHumidityBarometerVisibilityWind DirectionWind SpeedGust SpeedPrecipitationEventsConditions
1:51 AM37.0 °F32.0 °F82 %29.62 in10.0 miWNW (300°)6.9 mphMostly Cloudy
2:51 AM37.9 °F30.9 °F76 %29.63 in10.0 miNW (310°)5.8 mphMostly Cloudy
3:51 AM36.0 °F32.0 °F86 %29.65 in10.0 miWest (270°)6.9 mphMostly Cloudy
4:51 AM37.4 °F30.2 °F75 %29.66 in10.0 miWest (270°)6.9 mphOvercast
5:51 AM36.0 °F30.0 °F79 %29.68 in10.0 miWest (270°)5.8 mphMostly Cloudy
6:51 AM36.0 °F30.0 °F79 %29.70 in10.0 miWest (280°)5.8 mphMostly Cloudy
7:51 AM37.4 °F30.2 °F75 %29.72 in10.0 miWest (260°)4.6 mphMostly Cloudy
8:51 AM39.9 °F30.9 °F70 %29.74 in10.0 miWest (280°)6.9 mphMostly Cloudy
9:51 AM43.0 °F30.0 °F60 %29.75 in10.0 miWest (270°)8.1 mphMostly Cloudy
10:51 AM46.0 °F30.0 °F54 %29.75 in10.0 miCalmMostly Cloudy
11:51 AM48.9 °F28.0 °F44 %29.75 in10.0 miNNW (340°)10.4 mph16.1 mphScattered Clouds
12:51 PM50.0 °F24.8 °F37 %29.74 in10.0 miWNW (300°)12.7 mph21.9 mphMostly Cloudy
1:51 PM51.1 °F23.0 °F33 %29.73 in10.0 miNW (320°)15.0 mphMostly Cloudy
2:51 PM51.1 °F21.9 °F32 %29.73 in10.0 miWNW (300°)12.7 mph19.6 mphMostly Cloudy
3:51 PM51.8 °F21.2 °F30 %29.74 in10.0 miWNW (300°)16.1 mph21.9 mphMostly Cloudy
4:08 PM50.0 °F23.0 °F35 %29.74 in10.0 miWNW (300°)9.2 mph17.3 mph0.00 inRainLight Rain
4:51 PM51.1 °F21.9 °F32 %29.75 in10.0 miNNW (340°)19.6 mph25.3 mph0.00 inMostly Cloudy
5:51 PM48.9 °F26.1 °F41 %29.77 in10.0 miNNW (330°)15.0 mph21.9 mphMostly Cloudy
6:51 PM48.0 °F23.0 °F37 %29.79 in10.0 miNW (320°)9.2 mph20.7 mphMostly Cloudy
7:51 PM46.0 °F28.0 °F50 %29.82 in10.0 miNorth (360°)11.5 mph0.00 inRainLight Rain
8:51 PM46.9 °F24.1 °F41 %29.84 in10.0 miNW (320°)10.4 mph0.00 inScattered Clouds
9:51 PM45.0 °F24.1 °F44 %29.86 in10.0 miWNW (300°)6.9 mphScattered Clouds
10:51 PM42.1 °F25.0 °F51 %29.86 in10.0 miWNW (290°)6.9 mphPartly Cloudy
11:51 PM41.0 °F27.0 °F57 %29.87 in10.0 miVariable6.9 mphPartly Cloudy
Hourly data recorded from KEWR, located miles away from Staten Island, New York







STORIES FROM OUR PARTNERS